Year,Month,Day,Hour,Minute,Value (Times are PST for temperature in C)
2016,11,16,00,00,2.70
2016,11,16,00,01,2.70
2016,11,16,00,02,2.70
2016,11,16,00,03,2.60
2016,11,16,00,04,2.60
2016,11,16,00,05,2.60
2016,11,16,00,06,2.60
2016,11,16,00,07,2.60
2016,11,16,00,08,2.50
2016,11,16,00,09,2.50
2016,11,16,00,10,2.50
2016,11,16,00,11,2.50
2016,11,16,00,12,2.50
2016,11,16,00,13,2.60
2016,11,16,00,14,2.60
2016,11,16,00,15,2.60
2016,11,16,00,16,2.60
2016,11,16,00,17,2.60
2016,11,16,00,18,2.60
2016,11,16,00,19,2.60
2016,11,16,00,20,2.60
2016,11,16,00,21,2.50
2016,11,16,00,22,2.50
2016,11,16,00,23,2.50
2016,11,16,00,24,2.50
2016,11,16,00,25,2.50
2016,11,16,00,26,2.40
2016,11,16,00,27,2.40
2016,11,16,00,28,2.30
2016,11,16,00,29,2.30
2016,11,16,00,30,2.30
2016,11,16,00,31,2.30
2016,11,16,00,32,2.30
2016,11,16,00,33,2.30
2016,11,16,00,34,2.30
2016,11,16,00,35,2.40
2016,11,16,00,36,2.40
2016,11,16,00,37,2.40
2016,11,16,00,38,2.40
2016,11,16,00,39,2.40
2016,11,16,00,40,2.40
2016,11,16,00,41,2.40
2016,11,16,00,42,2.40
2016,11,16,00,43,2.40
2016,11,16,00,44,2.40
2016,11,16,00,45,2.40
2016,11,16,00,46,2.40
2016,11,16,00,47,2.40
2016,11,16,00,48,2.40
2016,11,16,00,49,2.40
2016,11,16,00,50,2.40
2016,11,16,00,51,2.40
2016,11,16,00,52,2.40
2016,11,16,00,53,2.40
2016,11,16,00,54,2.40
2016,11,16,00,55,2.40
2016,11,16,00,56,2.40
2016,11,16,00,57,2.40
2016,11,16,00,58,2.40
2016,11,16,00,59,2.40
2016,11,16,01,00,2.30
2016,11,16,01,01,2.30
2016,11,16,01,02,2.30
2016,11,16,01,03,2.30
2016,11,16,01,04,2.20
2016,11,16,01,05,2.20
2016,11,16,01,06,2.20
2016,11,16,01,07,2.20
2016,11,16,01,08,2.20
2016,11,16,01,09,2.20
2016,11,16,01,10,2.10
2016,11,16,01,11,2.10
2016,11,16,01,12,2.10
2016,11,16,01,13,2.10
2016,11,16,01,14,2.10
2016,11,16,01,15,2.10
2016,11,16,01,16,2.10
2016,11,16,01,17,2.10
2016,11,16,01,18,2.10
2016,11,16,01,19,2.10
2016,11,16,01,20,2.10
2016,11,16,01,21,2.10
2016,11,16,01,22,2.00
2016,11,16,01,23,2.00
2016,11,16,01,24,2.00
2016,11,16,01,25,2.00
2016,11,16,01,26,2.00
2016,11,16,01,27,1.90
2016,11,16,01,28,1.90
2016,11,16,01,29,1.90
2016,11,16,01,30,1.90
2016,11,16,01,31,1.90
2016,11,16,01,32,1.90
2016,11,16,01,33,1.90
2016,11,16,01,34,1.90
2016,11,16,01,35,1.90
2016,11,16,01,36,1.90
2016,11,16,01,37,1.90
2016,11,16,01,38,1.90
2016,11,16,01,39,1.90
2016,11,16,01,40,2.00
2016,11,16,01,41,2.00
2016,11,16,01,42,2.00
2016,11,16,01,43,2.00
2016,11,16,01,44,2.00
2016,11,16,01,45,2.00
2016,11,16,01,46,2.00
2016,11,16,01,47,2.00
2016,11,16,01,48,2.00
2016,11,16,01,49,2.00
2016,11,16,01,50,2.00
2016,11,16,01,51,2.00
2016,11,16,01,52,2.00
2016,11,16,01,53,2.00
2016,11,16,01,54,2.00
2016,11,16,01,55,2.10
2016,11,16,01,56,2.10
2016,11,16,01,57,2.10
2016,11,16,01,58,2.10
2016,11,16,01,59,2.10
2016,11,16,02,00,2.10
2016,11,16,02,01,2.10
2016,11,16,02,02,2.20
2016,11,16,02,03,2.20
2016,11,16,02,04,2.20
2016,11,16,02,05,2.20
2016,11,16,02,06,2.20
2016,11,16,02,07,2.20
2016,11,16,02,08,2.20
2016,11,16,02,09,2.20
2016,11,16,02,10,2.30
2016,11,16,02,11,2.30
2016,11,16,02,12,2.30
2016,11,16,02,13,2.30
2016,11,16,02,14,2.30
2016,11,16,02,15,2.30
2016,11,16,02,16,2.30
2016,11,16,02,17,2.30
2016,11,16,02,18,2.30
2016,11,16,02,19,2.30
2016,11,16,02,20,2.40
2016,11,16,02,21,2.40
2016,11,16,02,22,2.40
2016,11,16,02,23,2.40
2016,11,16,02,24,2.50
2016,11,16,02,25,2.50
2016,11,16,02,26,2.50
2016,11,16,02,27,2.60
2016,11,16,02,28,2.60
2016,11,16,02,29,2.60
2016,11,16,02,30,2.60
2016,11,16,02,31,2.60
2016,11,16,02,32,2.60
2016,11,16,02,33,2.60
2016,11,16,02,34,2.70
2016,11,16,02,35,2.70
2016,11,16,02,36,2.70
2016,11,16,02,37,2.70
2016,11,16,02,38,2.70
2016,11,16,02,39,2.70
2016,11,16,02,40,2.70
2016,11,16,02,41,2.70
2016,11,16,02,42,2.70
2016,11,16,02,43,2.70
2016,11,16,02,44,2.70
2016,11,16,02,45,2.70
2016,11,16,02,46,2.70
2016,11,16,02,47,2.70
2016,11,16,02,48,2.70
2016,11,16,02,49,2.70
2016,11,16,02,50,2.70
2016,11,16,02,51,2.70
2016,11,16,02,52,2.70
2016,11,16,02,53,2.70
2016,11,16,02,54,2.70
2016,11,16,02,55,2.70
2016,11,16,02,56,2.70
2016,11,16,02,57,2.70
2016,11,16,02,58,2.70
2016,11,16,02,59,2.70
2016,11,16,03,00,2.80
2016,11,16,03,01,2.80
2016,11,16,03,02,2.80
2016,11,16,03,03,2.80
2016,11,16,03,04,2.90
2016,11,16,03,05,2.90
2016,11,16,03,06,2.90
2016,11,16,03,07,2.90
2016,11,16,03,08,3.00
2016,11,16,03,09,3.00
2016,11,16,03,10,3.00
2016,11,16,03,11,3.00
2016,11,16,03,12,3.00
2016,11,16,03,13,3.00
2016,11,16,03,14,3.00
2016,11,16,03,15,3.00
2016,11,16,03,16,3.00
2016,11,16,03,17,3.00
2016,11,16,03,18,3.00
2016,11,16,03,19,3.00
2016,11,16,03,20,3.00
2016,11,16,03,21,3.00
2016,11,16,03,22,3.00
2016,11,16,03,23,3.00
2016,11,16,03,24,3.00
2016,11,16,03,25,3.00
2016,11,16,03,26,3.00
2016,11,16,03,27,3.00
2016,11,16,03,28,3.00
2016,11,16,03,29,3.00
2016,11,16,03,30,3.00
2016,11,16,03,31,3.00
2016,11,16,03,32,3.00
2016,11,16,03,33,3.00
2016,11,16,03,34,3.10
2016,11,16,03,35,3.10
2016,11,16,03,36,3.20
2016,11,16,03,37,3.20
2016,11,16,03,38,3.20
2016,11,16,03,39,3.20
2016,11,16,03,40,3.30
2016,11,16,03,41,3.30
2016,11,16,03,42,3.30
2016,11,16,03,43,3.30
2016,11,16,03,44,3.30
2016,11,16,03,45,3.30
2016,11,16,03,46,3.30
2016,11,16,03,47,3.30
2016,11,16,03,48,3.30
2016,11,16,03,49,3.30
2016,11,16,03,50,3.30
2016,11,16,03,51,3.40
2016,11,16,03,52,3.40
2016,11,16,03,53,3.40
2016,11,16,03,54,3.40
2016,11,16,03,55,3.40
2016,11,16,03,56,3.40
2016,11,16,03,57,3.40
2016,11,16,03,58,3.40
2016,11,16,03,59,3.40
2016,11,16,04,00,3.40
2016,11,16,04,01,3.40
2016,11,16,04,02,3.50
2016,11,16,04,03,3.50
2016,11,16,04,04,3.50
2016,11,16,04,05,3.50
2016,11,16,04,06,3.50
2016,11,16,04,07,3.50
2016,11,16,04,08,3.50
2016,11,16,04,09,3.50
2016,11,16,04,10,3.50
2016,11,16,04,11,3.60
2016,11,16,04,12,3.60
2016,11,16,04,13,3.60
2016,11,16,04,14,3.60
2016,11,16,04,15,3.60
2016,11,16,04,16,3.60
2016,11,16,04,17,3.60
2016,11,16,04,18,3.70
2016,11,16,04,19,3.70
2016,11,16,04,20,3.70
2016,11,16,04,21,3.70
2016,11,16,04,22,3.70
2016,11,16,04,23,3.70
2016,11,16,04,24,3.70
2016,11,16,04,25,3.70
2016,11,16,04,26,3.70
2016,11,16,04,27,3.80
2016,11,16,04,28,3.70
2016,11,16,04,29,3.70
2016,11,16,04,30,3.70
2016,11,16,04,31,3.70
2016,11,16,04,32,3.70
2016,11,16,04,33,3.80
2016,11,16,04,34,3.80
2016,11,16,04,35,3.80
2016,11,16,04,36,3.80
2016,11,16,04,37,3.80
2016,11,16,04,38,3.80
2016,11,16,04,39,3.80
2016,11,16,04,40,3.80
2016,11,16,04,41,3.80
2016,11,16,04,42,3.80
2016,11,16,04,43,3.80
2016,11,16,04,44,3.80
2016,11,16,04,45,3.90
2016,11,16,04,46,3.90
2016,11,16,04,47,3.90
2016,11,16,04,48,3.90
2016,11,16,04,49,3.90
2016,11,16,04,50,3.90
2016,11,16,04,51,3.90
2016,11,16,04,52,3.90
2016,11,16,04,53,3.90
2016,11,16,04,54,3.90
2016,11,16,04,55,3.90
2016,11,16,04,56,3.90
2016,11,16,04,57,3.90
2016,11,16,04,58,3.90
2016,11,16,04,59,3.90
2016,11,16,05,00,3.90
2016,11,16,05,01,3.90
2016,11,16,05,02,3.90
2016,11,16,05,03,3.90
2016,11,16,05,04,3.90
2016,11,16,05,05,3.90
2016,11,16,05,06,3.90
2016,11,16,05,07,3.90
2016,11,16,05,08,3.90
2016,11,16,05,09,3.90
2016,11,16,05,10,3.90
2016,11,16,05,11,3.90
2016,11,16,05,12,3.90
2016,11,16,05,13,4.00
2016,11,16,05,14,4.00
2016,11,16,05,15,4.00
2016,11,16,05,16,4.00
2016,11,16,05,17,4.00
2016,11,16,05,18,4.00
2016,11,16,05,19,4.00
2016,11,16,05,20,4.10
2016,11,16,05,21,4.10
2016,11,16,05,22,4.10
2016,11,16,05,23,4.10
2016,11,16,05,24,4.10
2016,11,16,05,25,4.10
2016,11,16,05,26,4.10
2016,11,16,05,27,4.10
2016,11,16,05,28,4.10
2016,11,16,05,29,4.10
2016,11,16,05,30,4.10
2016,11,16,05,31,4.10
2016,11,16,05,32,4.10
2016,11,16,05,33,4.10
2016,11,16,05,34,4.10
2016,11,16,05,35,4.10
2016,11,16,05,36,4.10
2016,11,16,05,37,4.10
2016,11,16,05,38,4.10
2016,11,16,05,39,4.10
2016,11,16,05,40,4.10
2016,11,16,05,41,4.10
2016,11,16,05,42,4.10
2016,11,16,05,43,4.10
2016,11,16,05,44,4.10
2016,11,16,05,45,4.10
2016,11,16,05,46,4.10
2016,11,16,05,47,4.10
2016,11,16,05,48,4.10
2016,11,16,05,49,4.10
2016,11,16,05,50,4.10
2016,11,16,05,51,4.10
2016,11,16,05,52,4.10
2016,11,16,05,53,4.10
2016,11,16,05,54,4.10
2016,11,16,05,55,4.10
2016,11,16,05,56,4.20
2016,11,16,05,57,4.20
2016,11,16,05,58,4.20
2016,11,16,05,59,4.20
2016,11,16,06,00,4.20
2016,11,16,06,01,4.20
2016,11,16,06,02,4.20
2016,11,16,06,03,4.20
2016,11,16,06,04,4.20
2016,11,16,06,05,4.20
2016,11,16,06,06,4.20
2016,11,16,06,07,4.20
2016,11,16,06,08,4.20
2016,11,16,06,09,4.20
2016,11,16,06,10,4.20
2016,11,16,06,11,4.20
2016,11,16,06,12,4.20
2016,11,16,06,13,4.20
2016,11,16,06,14,4.20
2016,11,16,06,15,4.20
2016,11,16,06,16,4.20
2016,11,16,06,17,4.20
2016,11,16,06,18,4.20
2016,11,16,06,19,4.20
2016,11,16,06,20,4.20
2016,11,16,06,21,4.20
2016,11,16,06,22,4.20
2016,11,16,06,23,4.20
2016,11,16,06,24,4.20
2016,11,16,06,25,4.20
2016,11,16,06,26,4.20
2016,11,16,06,27,4.20
2016,11,16,06,28,4.20
2016,11,16,06,29,4.20
2016,11,16,06,30,4.20
2016,11,16,06,31,4.30
2016,11,16,06,32,4.30
2016,11,16,06,33,4.30
2016,11,16,06,34,4.30
2016,11,16,06,35,4.30
2016,11,16,06,36,4.30
2016,11,16,06,37,4.30
2016,11,16,06,38,4.30
2016,11,16,06,39,4.30
2016,11,16,06,40,4.30
2016,11,16,06,41,4.40
2016,11,16,06,42,4.40
2016,11,16,06,43,4.40
2016,11,16,06,44,4.40
2016,11,16,06,45,4.40
2016,11,16,06,46,4.40
2016,11,16,06,47,4.40
2016,11,16,06,48,4.30
2016,11,16,06,49,4.30
2016,11,16,06,50,4.30
2016,11,16,06,51,4.30
2016,11,16,06,52,4.30
2016,11,16,06,53,4.30
2016,11,16,06,54,4.40
2016,11,16,06,55,4.40
2016,11,16,06,56,4.40
2016,11,16,06,57,4.40
2016,11,16,06,58,4.40
2016,11,16,06,59,4.40
2016,11,16,07,00,4.40
2016,11,16,07,01,4.40
2016,11,16,07,02,4.40
2016,11,16,07,03,4.40
2016,11,16,07,04,4.40
2016,11,16,07,05,4.40
2016,11,16,07,06,4.40
2016,11,16,07,07,4.40
2016,11,16,07,08,4.40
2016,11,16,07,09,4.40
2016,11,16,07,10,4.40
2016,11,16,07,11,4.40
2016,11,16,07,12,4.40
2016,11,16,07,13,4.40
2016,11,16,07,14,4.40
2016,11,16,07,15,4.30
2016,11,16,07,16,4.40
2016,11,16,07,17,4.40
2016,11,16,07,18,4.40
2016,11,16,07,19,4.40
2016,11,16,07,20,4.40
2016,11,16,07,21,4.40
2016,11,16,07,22,4.40
2016,11,16,07,23,4.40
2016,11,16,07,24,4.40
2016,11,16,07,25,4.40
2016,11,16,07,26,4.40
2016,11,16,07,27,4.40
2016,11,16,07,28,4.40
2016,11,16,07,29,4.40
2016,11,16,07,30,4.40
2016,11,16,07,31,4.40
2016,11,16,07,32,4.40
2016,11,16,07,33,4.40
2016,11,16,07,34,4.40
2016,11,16,07,35,4.50
2016,11,16,07,36,4.50
2016,11,16,07,37,4.50
2016,11,16,07,38,4.50
2016,11,16,07,39,4.50
2016,11,16,07,40,4.50
2016,11,16,07,41,4.50
2016,11,16,07,42,4.50
2016,11,16,07,43,4.50
2016,11,16,07,44,4.50
2016,11,16,07,45,4.50
2016,11,16,07,46,4.50
2016,11,16,07,47,4.50
2016,11,16,07,48,4.50
2016,11,16,07,49,4.50
2016,11,16,07,50,4.50
2016,11,16,07,51,4.50
2016,11,16,07,52,4.50
2016,11,16,07,53,4.60
2016,11,16,07,54,4.60
2016,11,16,07,55,4.60
2016,11,16,07,56,4.60
2016,11,16,07,57,4.60
2016,11,16,07,58,4.60
2016,11,16,07,59,4.60
2016,11,16,08,00,4.70
2016,11,16,08,01,4.70
2016,11,16,08,02,4.70
2016,11,16,08,03,4.70
2016,11,16,08,04,4.70
2016,11,16,08,05,4.80
2016,11,16,08,06,4.80
2016,11,16,08,07,4.80
2016,11,16,08,08,4.80
2016,11,16,08,09,4.80
2016,11,16,08,10,4.80
2016,11,16,08,11,4.90
2016,11,16,08,12,4.90
2016,11,16,08,13,5.00
2016,11,16,08,14,5.00
2016,11,16,08,15,5.00
2016,11,16,08,16,5.10
2016,11,16,08,17,5.10
2016,11,16,08,18,5.10
2016,11,16,08,19,5.10
2016,11,16,08,20,5.10
2016,11,16,08,21,5.20
2016,11,16,08,22,5.20
2016,11,16,08,23,5.20
2016,11,16,08,24,5.30
2016,11,16,08,25,5.30
2016,11,16,08,26,5.30
2016,11,16,08,27,5.30
2016,11,16,08,28,5.30
2016,11,16,08,29,5.30
2016,11,16,08,30,5.30
2016,11,16,08,31,5.30
2016,11,16,08,32,5.30
2016,11,16,08,33,5.30
2016,11,16,08,34,5.30
2016,11,16,08,35,5.30
2016,11,16,08,36,5.30
2016,11,16,08,37,5.30
2016,11,16,08,38,5.30
2016,11,16,08,39,5.30
2016,11,16,08,40,5.30
2016,11,16,08,41,5.20
2016,11,16,08,42,5.20
2016,11,16,08,43,5.20
2016,11,16,08,44,5.20
2016,11,16,08,45,5.20
2016,11,16,08,46,5.20
2016,11,16,08,47,5.20
2016,11,16,08,48,5.20
2016,11,16,08,49,5.20
2016,11,16,08,50,5.20
2016,11,16,08,51,5.20
2016,11,16,08,52,5.10
2016,11,16,08,53,5.20
2016,11,16,08,54,5.10
2016,11,16,08,55,5.10
2016,11,16,08,56,5.10
2016,11,16,08,57,5.10
2016,11,16,08,58,5.10
2016,11,16,08,59,5.10
2016,11,16,09,00,5.20
2016,11,16,09,01,5.20
2016,11,16,09,02,5.20
2016,11,16,09,03,5.20
2016,11,16,09,04,5.20
2016,11,16,09,05,5.20
2016,11,16,09,06,5.20
2016,11,16,09,07,5.20
2016,11,16,09,08,5.20
2016,11,16,09,09,5.20
2016,11,16,09,10,5.20
2016,11,16,09,11,5.20
2016,11,16,09,12,5.20
2016,11,16,09,13,5.20
2016,11,16,09,14,5.30
2016,11,16,09,15,5.30
2016,11,16,09,16,5.30
2016,11,16,09,17,5.30
2016,11,16,09,18,5.30
2016,11,16,09,19,5.30
2016,11,16,09,20,5.30
2016,11,16,09,21,5.30
2016,11,16,09,22,5.40
2016,11,16,09,23,5.40
2016,11,16,09,24,5.50
2016,11,16,09,25,5.50
2016,11,16,09,26,5.50
2016,11,16,09,27,5.60
2016,11,16,09,28,5.60
2016,11,16,09,29,5.60
2016,11,16,09,30,5.60
2016,11,16,09,31,5.60
2016,11,16,09,32,5.60
2016,11,16,09,33,5.60
2016,11,16,09,34,5.60
2016,11,16,09,35,5.60
2016,11,16,09,36,5.60
2016,11,16,09,37,5.60
2016,11,16,09,38,5.60
2016,11,16,09,39,5.60
2016,11,16,09,40,5.60
2016,11,16,09,41,5.60
2016,11,16,09,42,5.60
2016,11,16,09,43,5.60
2016,11,16,09,44,5.60
2016,11,16,09,45,5.60
2016,11,16,09,46,5.60
2016,11,16,09,47,5.60
2016,11,16,09,48,5.60
2016,11,16,09,49,5.60
2016,11,16,09,50,5.60
2016,11,16,09,51,5.70
2016,11,16,09,52,5.70
2016,11,16,09,53,5.70
2016,11,16,09,54,5.70
2016,11,16,09,55,5.70
2016,11,16,09,56,5.70
2016,11,16,09,57,5.70
2016,11,16,09,58,5.70
2016,11,16,09,59,5.80
2016,11,16,10,00,5.80
2016,11,16,10,01,5.80
2016,11,16,10,02,5.80
2016,11,16,10,03,5.80
2016,11,16,10,04,5.90
2016,11,16,10,05,5.90
2016,11,16,10,06,5.90
2016,11,16,10,07,6.00
2016,11,16,10,08,6.00
2016,11,16,10,09,6.00
2016,11,16,10,10,6.00
2016,11,16,10,11,6.10
2016,11,16,10,12,6.10
2016,11,16,10,13,6.10
2016,11,16,10,14,6.10
2016,11,16,10,15,6.20
2016,11,16,10,16,6.10
2016,11,16,10,17,6.10
2016,11,16,10,18,6.10
2016,11,16,10,19,6.10
2016,11,16,10,20,6.10
2016,11,16,10,21,6.10
2016,11,16,10,22,6.10
2016,11,16,10,23,6.20
2016,11,16,10,24,6.20
2016,11,16,10,25,6.20
2016,11,16,10,26,6.20
2016,11,16,10,27,6.20
2016,11,16,10,28,6.30
2016,11,16,10,29,6.30
2016,11,16,10,30,6.30
2016,11,16,10,31,6.30
2016,11,16,10,32,6.30
2016,11,16,10,33,6.30
2016,11,16,10,34,6.40
2016,11,16,10,35,6.40
2016,11,16,10,36,6.40
2016,11,16,10,37,6.40
2016,11,16,10,38,6.40
2016,11,16,10,39,6.40
2016,11,16,10,40,6.50
2016,11,16,10,41,6.50
2016,11,16,10,42,6.60
2016,11,16,10,43,6.60
2016,11,16,10,44,6.60
2016,11,16,10,45,6.60
2016,11,16,10,46,6.70
2016,11,16,10,47,6.70
2016,11,16,10,48,6.70
2016,11,16,10,49,6.80
2016,11,16,10,50,6.80
2016,11,16,10,51,6.80
2016,11,16,10,52,6.90
2016,11,16,10,53,6.90
2016,11,16,10,54,6.90
2016,11,16,10,55,7.00
2016,11,16,10,56,7.00
2016,11,16,10,57,7.00
2016,11,16,10,58,7.00
2016,11,16,10,59,7.10
2016,11,16,11,00,7.00
2016,11,16,11,01,7.00
2016,11,16,11,02,7.00
2016,11,16,11,03,7.10
2016,11,16,11,04,7.00
2016,11,16,11,05,7.00
2016,11,16,11,06,7.00
2016,11,16,11,07,7.00
2016,11,16,11,08,7.00
2016,11,16,11,09,7.00
2016,11,16,11,10,7.00
2016,11,16,11,11,7.00
2016,11,16,11,12,7.00
2016,11,16,11,13,7.00
2016,11,16,11,14,7.00
2016,11,16,11,15,7.00
2016,11,16,11,16,7.00
2016,11,16,11,17,7.00
2016,11,16,11,18,7.00
2016,11,16,11,19,7.00
2016,11,16,11,20,6.90
2016,11,16,11,21,6.90
2016,11,16,11,22,6.90
2016,11,16,11,23,6.90
2016,11,16,11,24,7.00
2016,11,16,11,25,7.00
2016,11,16,11,26,7.00
2016,11,16,11,27,7.10
2016,11,16,11,28,7.10
2016,11,16,11,29,7.10
2016,11,16,11,30,7.20
2016,11,16,11,31,7.20
2016,11,16,11,32,7.20
2016,11,16,11,33,7.20
2016,11,16,11,34,7.20
2016,11,16,11,35,7.20
2016,11,16,11,36,7.30
2016,11,16,11,37,7.30
2016,11,16,11,38,7.30
2016,11,16,11,39,7.30
2016,11,16,11,40,7.30
2016,11,16,11,41,7.30
2016,11,16,11,42,7.30
2016,11,16,11,43,7.30
2016,11,16,11,44,7.30
2016,11,16,11,45,7.30
2016,11,16,11,46,7.30
2016,11,16,11,47,7.20
2016,11,16,11,48,7.20
2016,11,16,11,49,7.20
2016,11,16,11,50,7.10
2016,11,16,11,51,7.10
2016,11,16,11,52,7.00
2016,11,16,11,53,7.00
2016,11,16,11,54,7.00
2016,11,16,11,55,6.90
2016,11,16,11,56,6.90
2016,11,16,11,57,6.90
2016,11,16,11,58,7.00
2016,11,16,11,59,7.00
2016,11,16,12,00,7.00
2016,11,16,12,01,7.00
2016,11,16,12,02,7.00
2016,11,16,12,03,7.00
2016,11,16,12,04,7.00
2016,11,16,12,05,7.00
2016,11,16,12,06,7.00
2016,11,16,12,07,7.00
2016,11,16,12,08,7.00
2016,11,16,12,09,7.00
2016,11,16,12,10,7.00
2016,11,16,12,11,7.00
2016,11,16,12,12,7.00
2016,11,16,12,13,7.00
2016,11,16,12,14,7.00
2016,11,16,12,15,7.00
2016,11,16,12,16,7.00
2016,11,16,12,17,7.00
2016,11,16,12,18,7.00
2016,11,16,12,19,7.00
2016,11,16,12,20,7.00
2016,11,16,12,21,6.90
2016,11,16,12,22,6.90
2016,11,16,12,23,6.90
2016,11,16,12,24,6.90
2016,11,16,12,25,6.90
2016,11,16,12,26,6.90
2016,11,16,12,27,6.90
2016,11,16,12,28,6.90
2016,11,16,12,29,6.90
2016,11,16,12,30,6.80
2016,11,16,12,31,6.80
2016,11,16,12,32,6.80
2016,11,16,12,33,6.80
2016,11,16,12,34,6.80
2016,11,16,12,35,6.80
2016,11,16,12,36,6.80
2016,11,16,12,37,6.80
2016,11,16,12,38,6.80
2016,11,16,12,39,6.80
2016,11,16,12,40,6.70
2016,11,16,12,41,6.70
2016,11,16,12,42,6.70
2016,11,16,12,43,6.70
2016,11,16,12,44,6.70
2016,11,16,12,45,6.70
2016,11,16,12,46,6.70
2016,11,16,12,47,6.70
2016,11,16,12,48,6.70
2016,11,16,12,49,6.70
2016,11,16,12,50,6.70
2016,11,16,12,51,6.70
2016,11,16,12,52,6.80
2016,11,16,12,53,6.80
2016,11,16,12,54,6.80
2016,11,16,12,55,6.80
2016,11,16,12,56,6.80
2016,11,16,12,57,6.80
2016,11,16,12,58,6.80
2016,11,16,12,59,6.80
2016,11,16,13,00,6.80
2016,11,16,13,01,6.80
2016,11,16,13,02,6.80
2016,11,16,13,03,6.80
2016,11,16,13,04,6.80
2016,11,16,13,05,6.80
2016,11,16,13,06,6.80
2016,11,16,13,07,6.80
2016,11,16,13,08,6.80
2016,11,16,13,09,6.80
2016,11,16,13,10,6.80
2016,11,16,13,11,6.80
2016,11,16,13,12,6.80
2016,11,16,13,13,6.80
2016,11,16,13,14,6.80
2016,11,16,13,15,6.80
2016,11,16,13,16,6.80
2016,11,16,13,17,6.80
2016,11,16,13,18,6.80
2016,11,16,13,19,6.80
2016,11,16,13,20,6.80
2016,11,16,13,21,6.90
2016,11,16,13,22,6.90
2016,11,16,13,23,6.90
2016,11,16,13,24,6.90
2016,11,16,13,25,7.00
2016,11,16,13,26,7.00
2016,11,16,13,27,7.00
2016,11,16,13,28,7.00
2016,11,16,13,29,7.00
2016,11,16,13,30,7.10
2016,11,16,13,31,7.10
2016,11,16,13,32,7.10
2016,11,16,13,33,7.10
2016,11,16,13,34,7.20
2016,11,16,13,35,7.20
2016,11,16,13,36,7.20
2016,11,16,13,37,7.20
2016,11,16,13,38,7.20
2016,11,16,13,39,7.20
2016,11,16,13,40,7.20
2016,11,16,13,41,7.20
2016,11,16,13,42,7.30
2016,11,16,13,43,7.30
2016,11,16,13,44,7.30
2016,11,16,13,45,7.30
2016,11,16,13,46,7.40
2016,11,16,13,47,7.40
2016,11,16,13,48,7.40
2016,11,16,13,49,7.40
2016,11,16,13,50,7.40
2016,11,16,13,51,7.40
2016,11,16,13,52,7.40
2016,11,16,13,53,7.40
2016,11,16,13,54,7.50
2016,11,16,13,55,7.50
2016,11,16,13,56,7.50
2016,11,16,13,57,7.60
2016,11,16,13,58,7.60
2016,11,16,13,59,7.60
2016,11,16,14,00,7.60
2016,11,16,14,01,7.60
2016,11,16,14,02,7.60
2016,11,16,14,03,7.60
2016,11,16,14,04,7.60
2016,11,16,14,05,7.60
2016,11,16,14,06,7.60
2016,11,16,14,07,7.60
2016,11,16,14,08,7.70
2016,11,16,14,09,7.70
2016,11,16,14,10,7.70
2016,11,16,14,11,7.60
2016,11,16,14,12,7.60
2016,11,16,14,13,7.60
2016,11,16,14,14,7.60
2016,11,16,14,15,7.60
2016,11,16,14,16,7.70
2016,11,16,14,17,7.60
2016,11,16,14,18,7.60
2016,11,16,14,19,7.60
2016,11,16,14,20,7.60
2016,11,16,14,21,7.60
2016,11,16,14,22,7.60
2016,11,16,14,23,7.60
2016,11,16,14,24,7.60
2016,11,16,14,25,7.60
2016,11,16,14,26,7.60
2016,11,16,14,27,7.60
2016,11,16,14,28,7.60
2016,11,16,14,29,7.60
2016,11,16,14,30,7.60
2016,11,16,14,31,7.60
2016,11,16,14,32,7.60
2016,11,16,14,33,7.70
2016,11,16,14,34,7.60
2016,11,16,14,35,7.60
2016,11,16,14,36,7.60
2016,11,16,14,37,7.60
2016,11,16,14,38,7.60
2016,11,16,14,39,7.60
2016,11,16,14,40,7.70
2016,11,16,14,41,7.70
2016,11,16,14,42,7.70
2016,11,16,14,43,7.80
2016,11,16,14,44,7.80
2016,11,16,14,45,7.80
2016,11,16,14,46,7.80
2016,11,16,14,47,7.80
2016,11,16,14,48,7.80
2016,11,16,14,49,7.80
2016,11,16,14,50,7.80
2016,11,16,14,51,7.80
2016,11,16,14,52,7.80
2016,11,16,14,53,7.80
2016,11,16,14,54,7.80
2016,11,16,14,55,7.80
2016,11,16,14,56,7.80
2016,11,16,14,57,7.80
2016,11,16,14,58,7.80
2016,11,16,14,59,7.80
2016,11,16,15,00,7.80
2016,11,16,15,01,7.80
2016,11,16,15,02,7.80
2016,11,16,15,03,7.80
2016,11,16,15,04,7.80
2016,11,16,15,05,7.80
2016,11,16,15,06,7.80
2016,11,16,15,07,7.80
2016,11,16,15,08,7.80
2016,11,16,15,09,7.80
2016,11,16,15,10,7.80
2016,11,16,15,11,7.80
2016,11,16,15,12,7.80
2016,11,16,15,13,7.80
2016,11,16,15,14,7.70
2016,11,16,15,15,7.70
2016,11,16,15,16,7.70
2016,11,16,15,17,7.70
2016,11,16,15,18,7.70
2016,11,16,15,19,7.70
2016,11,16,15,20,7.70
2016,11,16,15,21,7.80
2016,11,16,15,22,7.80
2016,11,16,15,23,7.80
2016,11,16,15,24,7.80
2016,11,16,15,25,7.80
2016,11,16,15,26,7.80
2016,11,16,15,27,7.80
2016,11,16,15,28,7.70
2016,11,16,15,29,7.70
2016,11,16,15,30,7.70
2016,11,16,15,31,7.70
2016,11,16,15,32,7.70
2016,11,16,15,33,7.70
2016,11,16,15,34,7.70
2016,11,16,15,35,7.70
2016,11,16,15,36,7.60
2016,11,16,15,37,7.60
2016,11,16,15,38,7.60
2016,11,16,15,39,7.60
2016,11,16,15,40,7.60
2016,11,16,15,41,7.60
2016,11,16,15,42,7.60
2016,11,16,15,43,7.60
2016,11,16,15,44,7.60
2016,11,16,15,45,7.60
2016,11,16,15,46,7.60
2016,11,16,15,47,7.60
2016,11,16,15,48,7.60
2016,11,16,15,49,7.60
2016,11,16,15,50,7.60
2016,11,16,15,51,7.60
2016,11,16,15,52,7.60
2016,11,16,15,53,7.50
2016,11,16,15,54,7.50
2016,11,16,15,55,7.50
2016,11,16,15,56,7.50
2016,11,16,15,57,7.50
2016,11,16,15,58,7.40
2016,11,16,15,59,7.40
2016,11,16,16,00,7.40
2016,11,16,16,01,7.40
2016,11,16,16,02,7.40
2016,11,16,16,03,7.40
2016,11,16,16,04,7.40
2016,11,16,16,05,7.40
2016,11,16,16,06,7.40
2016,11,16,16,07,7.40
2016,11,16,16,08,7.30
2016,11,16,16,09,7.30
2016,11,16,16,10,7.30
2016,11,16,16,11,7.30
2016,11,16,16,12,7.30
2016,11,16,16,13,7.30
2016,11,16,16,14,7.30
2016,11,16,16,15,7.30
2016,11,16,16,16,7.30
2016,11,16,16,17,7.30
2016,11,16,16,18,7.20
2016,11,16,16,19,7.20
2016,11,16,16,20,7.20
2016,11,16,16,21,7.20
2016,11,16,16,22,7.20
2016,11,16,16,23,7.20
2016,11,16,16,24,7.20
2016,11,16,16,25,7.10
2016,11,16,16,26,7.10
2016,11,16,16,27,7.10
2016,11,16,16,28,7.10
2016,11,16,16,29,7.10
2016,11,16,16,30,7.10
2016,11,16,16,31,7.10
2016,11,16,16,32,7.00
2016,11,16,16,33,7.00
2016,11,16,16,34,7.00
2016,11,16,16,35,7.00
2016,11,16,16,36,7.00
2016,11,16,16,37,6.90
2016,11,16,16,38,6.90
2016,11,16,16,39,6.90
2016,11,16,16,40,6.90
2016,11,16,16,41,6.90
2016,11,16,16,42,6.90
2016,11,16,16,43,6.90
2016,11,16,16,44,6.90
2016,11,16,16,45,6.90
2016,11,16,16,46,6.90
2016,11,16,16,47,6.90
2016,11,16,16,48,6.90
2016,11,16,16,49,6.80
2016,11,16,16,50,6.80
2016,11,16,16,51,6.80
2016,11,16,16,52,6.80
2016,11,16,16,53,6.80
2016,11,16,16,54,6.80
2016,11,16,16,55,6.80
2016,11,16,16,56,6.80
2016,11,16,16,57,6.80
2016,11,16,16,58,6.80
2016,11,16,16,59,6.80
2016,11,16,17,00,6.70
2016,11,16,17,01,6.70
2016,11,16,17,02,6.70
2016,11,16,17,03,6.70
2016,11,16,17,04,6.70
2016,11,16,17,05,6.70
2016,11,16,17,06,6.60
2016,11,16,17,07,6.60
2016,11,16,17,08,6.60
2016,11,16,17,09,6.50
2016,11,16,17,10,6.50
2016,11,16,17,11,6.50
2016,11,16,17,12,6.50
2016,11,16,17,13,6.40
2016,11,16,17,14,6.40
2016,11,16,17,15,6.40
2016,11,16,17,16,6.40
2016,11,16,17,17,6.40
2016,11,16,17,18,6.40
2016,11,16,17,19,6.30
2016,11,16,17,20,6.30
2016,11,16,17,21,6.30
2016,11,16,17,22,6.30
2016,11,16,17,23,6.30
2016,11,16,17,24,6.30
2016,11,16,17,25,6.30
2016,11,16,17,26,6.30
2016,11,16,17,27,6.30
2016,11,16,17,28,6.20
2016,11,16,17,29,6.20
2016,11,16,17,30,6.20
2016,11,16,17,31,6.20
2016,11,16,17,32,6.20
2016,11,16,17,33,6.20
2016,11,16,17,34,6.20
2016,11,16,17,35,6.20
2016,11,16,17,36,6.20
2016,11,16,17,37,6.10
2016,11,16,17,38,6.10
2016,11,16,17,39,6.10
2016,11,16,17,40,6.10
2016,11,16,17,41,6.10
2016,11,16,17,42,6.10
2016,11,16,17,43,6.10
2016,11,16,17,44,6.10
2016,11,16,17,45,6.10
2016,11,16,17,46,6.10
2016,11,16,17,47,6.10
2016,11,16,17,48,6.10
2016,11,16,17,49,6.00
2016,11,16,17,50,6.00
2016,11,16,17,51,6.00
2016,11,16,17,52,5.90
2016,11,16,17,53,5.90
2016,11,16,17,54,5.90
2016,11,16,17,55,5.90
2016,11,16,17,56,5.90
2016,11,16,17,57,5.80
2016,11,16,17,58,5.80
2016,11,16,17,59,5.80
2016,11,16,18,00,5.80
2016,11,16,18,01,5.80
2016,11,16,18,02,5.80
2016,11,16,18,03,5.80
2016,11,16,18,04,5.80
2016,11,16,18,05,5.80
2016,11,16,18,06,5.70